EW0925 Wantagh NY US current weather conditions

sailwx.info

Wind from 260 at 2 knots gusting 6

Air temperature 13.3° C
Dewpoint 6.9° C

Last reported at 2019-Oct-18 14:07 UTC.
Time now 2019-Oct-18 14:48 UTC

Location: N 40°40' W 073°31'.
View on Google Maps.

See reports from other nearby stations

  
Tides and Currents Weather Stations Pressure Air Temp Water Temp Dewpoint Dewpoint Depression Visibility Wind Speed Wind Dir Waves Ship Positions
date/time (UTC)wind fromknots sea level pressurealtimeterstation pressurevisibilityair tempwater tempwave heightnotes
2019-Oct-18 14:07 260 2 gusting 6 13.3
2019-Oct-18 14:02 327 2 gusting 6 12.8
2019-Oct-18 13:57 210 2 gusting 6 12.8
2019-Oct-18 13:52 329 2 gusting 6 12.8
2019-Oct-18 13:47 268 2 gusting 12 12.8
2019-Oct-18 13:42 288 3 gusting 12 12.2
2019-Oct-18 13:37 299 3 gusting 7 12.2
2019-Oct-18 13:32 347 2 gusting 7 11.7
2019-Oct-18 13:27 259 2 gusting 5 11.7
2019-Oct-18 13:22 300 2 gusting 5 11.7
2019-Oct-18 13:17 275 1 gusting 6 11.7
2019-Oct-18 13:12 274 2 gusting 6 11.7
2019-Oct-18 13:07 005 3 gusting 6 11.7
2019-Oct-18 13:02 336 2 gusting 6 11.7
2019-Oct-18 12:57 250 1 gusting 6 11.7
2019-Oct-18 12:52 298 1 gusting 5 11.7
2019-Oct-18 12:47 298 1 gusting 4 11.7
2019-Oct-18 12:42 273 1 gusting 5 11.7
2019-Oct-18 12:37 304 1 gusting 5 11.7
2019-Oct-18 12:32 299 2 gusting 5 11.7
2019-Oct-18 12:27 327 2 gusting 6 11.1
2019-Oct-18 12:22 306 2 gusting 6 11.1
2019-Oct-18 12:17 302 2 gusting 5 11.1
2019-Oct-18 12:12 265 1 gusting 5 11.1
2019-Oct-18 12:07 247 1 gusting 4 11.1
2019-Oct-18 12:01 304 1 gusting 5 10.6
2019-Oct-18 11:56 306 1 gusting 5 10.6
2019-Oct-18 11:51 257 1 gusting 4 10.6
2019-Oct-18 11:46 284 1 gusting 4 10.6
2019-Oct-18 11:41 285 1 gusting 5 10.6
2019-Oct-18 11:36 308 2 gusting 5 10.6
2019-Oct-18 11:31 306 2 gusting 6 10.6
2019-Oct-18 11:26 327 2 gusting 6 10.6
2019-Oct-18 11:21 291 2 gusting 6 10.0
2019-Oct-18 11:16 292 1 gusting 6 10.0
2019-Oct-18 11:11 340 1 gusting 5 10.0
2019-Oct-18 11:06 300 2 gusting 6 10.0
2019-Oct-18 11:01 327 1 gusting 6 10.0
2019-Oct-18 10:56 331 1 gusting 6 10.0
2019-Oct-18 10:51 294 1 gusting 5 10.0
2019-Oct-18 10:46 288 1 gusting 4 10.0
2019-Oct-18 10:41 315 1 gusting 5 10.6
2019-Oct-18 10:36 233 0 gusting 5 10.6
2019-Oct-18 10:31 309 1 gusting 5 10.6
2019-Oct-18 10:26 309 2 gusting 5 10.6
2019-Oct-18 10:21 275 2 gusting 6 10.6
2019-Oct-18 10:16 302 2 gusting 6 10.6
2019-Oct-18 10:11 277 2 gusting 6 10.6
2019-Oct-18 10:06 286 2 gusting 6 10.6
2019-Oct-18 10:01 300 2 gusting 6 10.6
2019-Oct-18 09:56 317 2 gusting 6 10.6
2019-Oct-18 09:51 298 2 gusting 5 10.6
2019-Oct-18 09:46 313 2 gusting 6 10.6
2019-Oct-18 09:41 339 2 gusting 6 10.6
2019-Oct-18 09:36 329 2 gusting 6 10.6
2019-Oct-18 09:31 327 1 gusting 6 10.6
2019-Oct-18 09:26 298 1 gusting 5 10.6
2019-Oct-18 09:21 280 1 gusting 5 10.6
2019-Oct-18 09:16 274 2 gusting 5 10.6
2019-Oct-18 09:11 327 2 gusting 6 10.6
2019-Oct-18 09:06 344 2 gusting 6 10.6
2019-Oct-18 09:01 309 2 gusting 6 10.6
2019-Oct-18 08:56 270 2 gusting 6 10.6
2019-Oct-18 08:51 263 1 gusting 8 10.6
2019-Oct-18 08:46 309 1 gusting 8 10.6
2019-Oct-18 08:41 325 1 gusting 5 10.6
2019-Oct-18 08:36 252 2 gusting 6 10.6
2019-Oct-18 08:31 263 2 gusting 6 10.6
2019-Oct-18 08:26 293 1 gusting 6 10.6
2019-Oct-18 08:21 281 1 gusting 5 10.6
2019-Oct-18 08:16 291 1 gusting 6 10.6
2019-Oct-18 08:11 290 2 gusting 6 11.1
2019-Oct-18 08:06 263 2 gusting 6 11.1
2019-Oct-18 08:01 279 3 gusting 7 11.1
2019-Oct-18 07:56 292 3 gusting 7 10.6
2019-Oct-18 07:51 273 2 gusting 6 10.6
2019-Oct-18 07:46 055 2 gusting 6 10.6
2019-Oct-18 07:41 254 2 gusting 6 10.6
2019-Oct-18 07:36 277 1 gusting 6 10.6
2019-Oct-18 07:31 256 1 gusting 6 10.6
2019-Oct-18 07:26 297 1 gusting 5 10.6
2019-Oct-18 07:21 327 1 gusting 7 11.1
2019-Oct-18 07:16 285 1 gusting 7 11.1
2019-Oct-18 07:11 302 2 gusting 8 11.1
2019-Oct-18 07:06 259 2 gusting 8 11.1
2019-Oct-18 07:01 307 2 gusting 6 11.1
2019-Oct-18 06:56 258 2 gusting 6 11.1
2019-Oct-18 06:51 240 2 gusting 6 11.1
2019-Oct-18 06:46 286 2 gusting 6 11.1
2019-Oct-18 06:41 315 2 gusting 6 11.1
2019-Oct-18 06:36 283 1 gusting 4 11.1
2019-Oct-18 06:31 283 2 gusting 5 11.1
2019-Oct-18 06:26 312 2 gusting 5 11.1
2019-Oct-18 06:21 302 2 gusting 6 11.1
2019-Oct-18 06:16 345 2 gusting 6 11.1
2019-Oct-18 06:11 225 2 gusting 6 11.1
2019-Oct-18 06:06 292 2 gusting 6 11.7
2019-Oct-18 06:01 304 2 gusting 6 11.7
2019-Oct-18 05:56 304 2 gusting 6 11.7
2019-Oct-18 05:51 293 3 gusting 6 11.7
2019-Oct-18 05:46 292 3 gusting 9 11.7
2019-Oct-18 05:41 287 3 gusting 9 11.7
2019-Oct-18 05:36 255 3 gusting 11 11.7
2019-Oct-18 05:31 313 3 gusting 11 11.7
2019-Oct-18 05:26 283 2 gusting 6 11.7
2019-Oct-18 05:21 265 2 gusting 7 11.7
2019-Oct-18 05:16 151 2 gusting 7 11.7
2019-Oct-18 05:11 271 2 gusting 7 11.7
2019-Oct-18 05:06 309 2 gusting 6 11.7
2019-Oct-18 05:01 298 2 gusting 6 11.7
2019-Oct-18 04:56 331 3 gusting 17 11.7
2019-Oct-18 04:51 302 3 gusting 17 11.7
2019-Oct-18 04:46 315 3 gusting 13 11.7
2019-Oct-18 04:41 315 3 gusting 8 11.7
2019-Oct-18 04:36 264 4 gusting 9 11.7
2019-Oct-18 04:31 301 3 gusting 9 11.7
2019-Oct-18 04:26 308 3 gusting 8 11.7
2019-Oct-18 04:21 311 3 gusting 8 12.2
2019-Oct-18 04:16 261 3 gusting 7 12.2
2019-Oct-18 04:11 286 3 gusting 8 12.2
2019-Oct-18 04:06 302 3 gusting 8 12.2
2019-Oct-18 04:01 309 4 gusting 8 12.2
2019-Oct-18 03:56 269 4 gusting 8 12.2
2019-Oct-18 03:51 250 3 gusting 7 12.2
2019-Oct-18 03:46 235 4 gusting 9 12.2
2019-Oct-18 03:41 324 4 gusting 9 12.2
2019-Oct-18 03:36 315 4 gusting 9 12.8
2019-Oct-18 03:31 282 4 gusting 9 12.8
2019-Oct-18 03:26 275 4 gusting 8 12.8
2019-Oct-18 03:21 292 4 gusting 8 12.8
2019-Oct-18 03:16 309 4 gusting 9 12.8
2019-Oct-18 03:11 298 3 gusting 9 12.8
2019-Oct-18 03:06 293 2 gusting 6 12.8
2019-Oct-18 03:01 321 3 gusting 6 12.8
2019-Oct-18 02:56 252 4 gusting 8 12.8
2019-Oct-18 02:51 275 3 gusting 8 12.8
2019-Oct-18 02:46 268 4 gusting 8 12.8
2019-Oct-18 02:41 269 4 gusting 8 12.8
2019-Oct-18 02:36 300 4 gusting 10 12.8
2019-Oct-18 02:31 271 4 gusting 10 12.8
2019-Oct-18 02:26 247 3 gusting 6 12.8
2019-Oct-18 02:21 292 3 gusting 6 12.8
2019-Oct-18 02:16 288 3 gusting 6 12.8
2019-Oct-18 02:11 294 3 gusting 8 12.8
2019-Oct-18 02:06 249 4 gusting 8 12.8
2019-Oct-18 02:01 296 4 gusting 8 12.8
2019-Oct-18 01:56 268 3 gusting 7 12.8
2019-Oct-18 01:51 272 3 gusting 6 12.8
2019-Oct-18 01:46 314 3 gusting 6 12.8
2019-Oct-18 01:41 316 3 gusting 6 13.3
2019-Oct-18 01:36 277 3 gusting 6 13.3
2019-Oct-18 01:31 343 3 gusting 7 13.3
2019-Oct-18 01:26 311 4 gusting 10 13.3
2019-Oct-18 01:21 255 4 gusting 10 13.3
2019-Oct-18 01:16 261 4 gusting 11 13.3
2019-Oct-18 01:11 294 5 gusting 11 13.3
2019-Oct-18 01:06 336 4 gusting 8 13.3
2019-Oct-18 01:01 322 4 gusting 8 13.3
2019-Oct-18 00:56 298 4 gusting 8 13.3
2019-Oct-18 00:51 294 4 gusting 8 13.3
2019-Oct-18 00:46 307 4 gusting 9 13.3
2019-Oct-18 00:41 272 3 gusting 9 13.3
2019-Oct-18 00:36 250 4 gusting 8 13.3
2019-Oct-18 00:31 284 4 gusting 7 13.3
2019-Oct-18 00:26 301 4 gusting 7 13.3
2019-Oct-18 00:21 293 4 gusting 7 13.3
2019-Oct-18 00:16 252 3 gusting 9 13.3
2019-Oct-18 00:11 268 4 gusting 9 13.3
2019-Oct-18 00:06 267 5 gusting 10 13.3
2019-Oct-18 00:01 282 4 gusting 10 13.3
2019-Oct-17 23:56 321 4 gusting 9 13.3
2019-Oct-17 23:51 296 4 gusting 11 13.9
2019-Oct-17 23:46 250 4 gusting 11 13.9
2019-Oct-17 23:41 292 4 gusting 11 13.9
2019-Oct-17 23:36 290 4 gusting 11 13.9
2019-Oct-17 23:31 234 4 gusting 7 13.9
2019-Oct-17 23:26 261 4 gusting 7 13.9
2019-Oct-17 23:21 317 4 gusting 11 13.9
2019-Oct-17 23:16 302 5 gusting 11 13.9
2019-Oct-17 23:11 208 4 gusting 12 13.9
2019-Oct-17 23:06 244 3 gusting 12 13.9
2019-Oct-17 23:00 242 3 gusting 6 13.9
2019-Oct-17 22:55 311 3 gusting 7 13.9
2019-Oct-17 22:50 311 3 gusting 7 13.9
2019-Oct-17 22:46 252 3 gusting 6 13.9
2019-Oct-17 22:41 280 3 gusting 8 13.9
2019-Oct-17 22:35 259 3 gusting 8 13.9
2019-Oct-17 22:31 240 3 gusting 7 13.9
2019-Oct-17 22:26 054 3 gusting 8 13.9
2019-Oct-17 22:20 313 4 gusting 9 13.9
2019-Oct-17 22:15 275 3 gusting 9 14.4
2019-Oct-17 22:11 254 4 gusting 10 14.4
2019-Oct-17 22:05 224 5 gusting 10 14.4
2019-Oct-17 22:01 290 3 gusting 8 14.4
2019-Oct-17 21:56 325 3 gusting 6 14.4
2019-Oct-17 21:51 321 3 gusting 6 14.4
2019-Oct-17 21:46 300 4 gusting 7 14.4
2019-Oct-17 21:41 256 5 gusting 12 14.4
2019-Oct-17 21:35 250 4 gusting 12 14.4
2019-Oct-17 21:30 307 3 gusting 6 13.9
2019-Oct-17 21:25 258 2 gusting 5 13.9
2019-Oct-17 21:20 273 2 gusting 5 13.9
2019-Oct-17 21:16 309 3 gusting 7 13.9
2019-Oct-17 21:11 248 3 gusting 7 14.4
2019-Oct-17 21:06 285 4 gusting 7 13.9
2019-Oct-17 21:01 252 5 gusting 16 14.4
2019-Oct-17 20:55 308 4 gusting 16 14.4
2019-Oct-17 20:50 235 3 gusting 7 14.4
2019-Oct-17 20:45 259 3 gusting 6 14.4
2019-Oct-17 20:40 294 4 gusting 13 14.4
2019-Oct-17 20:35 269 5 gusting 13 14.4
2019-Oct-17 20:30 307 4 gusting 9 14.4
2019-Oct-17 20:25 303 4 gusting 9 14.4
2019-Oct-17 20:20 266 4 gusting 8 14.4
2019-Oct-17 20:15 268 4 gusting 8 14.4
2019-Oct-17 20:10 256 4 gusting 8 14.4
2019-Oct-17 20:05 288 3 gusting 7 14.4
2019-Oct-17 20:00 322 4 gusting 6 14.4
2019-Oct-17 19:55 289 3 gusting 6 14.4
2019-Oct-17 19:50 265 4 gusting 10 14.4
2019-Oct-17 19:45 275 4 gusting 10 14.4
2019-Oct-17 19:40 285 5 gusting 9 14.4
2019-Oct-17 19:35 273 6 gusting 12 14.4
2019-Oct-17 19:30 286 5 gusting 12 14.4
2019-Oct-17 19:25 320 5 gusting 8 14.4
2019-Oct-17 19:20 306 5 gusting 8 14.4
2019-Oct-17 19:15 282 5 gusting 8 14.4
2019-Oct-17 19:10 329 5 gusting 13 14.4
2019-Oct-17 19:05 301 5 gusting 13 14.4
2019-Oct-17 19:00 269 5 gusting 10 14.4
2019-Oct-17 18:55 250 6 gusting 13 14.4
2019-Oct-17 18:50 265 6 gusting 15 14.4
2019-Oct-17 18:45 291 6 gusting 15 14.4
2019-Oct-17 18:40 287 6 gusting 16 14.4
2019-Oct-17 18:35 298 6 gusting 16 15.0
2019-Oct-17 18:30 247 6 gusting 13 15.0
2019-Oct-17 18:25 253 6 gusting 15 14.4
2019-Oct-17 18:20 327 6 gusting 15 14.4
2019-Oct-17 18:15 283 6 gusting 13 14.4
2019-Oct-17 18:10 310 6 gusting 11 14.4
2019-Oct-17 18:05 311 5 gusting 11 14.4
2019-Oct-17 18:00 288 6 gusting 12 14.4
2019-Oct-17 17:55 254 6 gusting 12 14.4
2019-Oct-17 17:50 269 6 gusting 11 14.4
2019-Oct-17 17:45 334 6 gusting 11 14.4
2019-Oct-17 17:40 258 6 gusting 11 14.4
2019-Oct-17 17:35 276 5 gusting 11 14.4
2019-Oct-17 17:30 264 4 gusting 9 14.4
2019-Oct-17 17:25 261 4 gusting 9 14.4
2019-Oct-17 17:20 238 5 gusting 10 13.9
2019-Oct-17 17:15 299 6 gusting 10 13.9
2019-Oct-17 17:10 296 6 gusting 10 13.9
2019-Oct-17 17:05 257 5 gusting 11 14.4
2019-Oct-17 17:00 192 5 gusting 11 14.4
2019-Oct-17 16:55 304 5 gusting 12 14.4
2019-Oct-17 16:50 311 5 gusting 12 13.9
2019-Oct-17 16:45 273 6 gusting 12 13.9
2019-Oct-17 16:40 275 6 gusting 12 13.9
2019-Oct-17 16:35 270 5 gusting 10 13.9
2019-Oct-17 16:30 293 6 gusting 12 13.9
2019-Oct-17 16:25 286 6 gusting 12 13.3
2019-Oct-17 16:20 254 5 gusting 10 13.9
2019-Oct-17 16:15 253 5 gusting 11 13.9
2019-Oct-17 16:10 236 6 gusting 12 13.9
2019-Oct-17 16:05 005 6 gusting 12 13.9
2019-Oct-17 16:00 303 6 gusting 12 13.9
2019-Oct-17 15:55 282 6 gusting 12 13.9
2019-Oct-17 15:50 248 5 gusting 11 13.9
2019-Oct-17 15:45 339 5 gusting 10 13.9
2019-Oct-17 15:40 333 5 gusting 10 13.3
2019-Oct-17 15:35 292 5 gusting 9 13.3
2019-Oct-17 15:30 279 6 gusting 10 13.3
2019-Oct-17 15:25 240 6 gusting 10 13.3
2019-Oct-17 15:20 284 5 gusting 10 13.3
2019-Oct-17 15:15 294 5 gusting 10 13.3
2019-Oct-17 15:10 292 5 gusting 9 12.8
2019-Oct-17 15:05 265 5 gusting 9 12.8
2019-Oct-17 15:00 289 5 gusting 9 12.8
2019-Oct-17 14:55 265 5 gusting 10 12.8
2019-Oct-17 14:50 259 5 gusting 10 12.8
2019-Oct-17 14:45 329 5 gusting 12 12.8
2019-Oct-17 14:40 248 5 gusting 12 12.8
2019-Oct-17 14:35 307 4 gusting 11 12.8
2019-Oct-17 14:30 273 4 gusting 11 12.8
2019-Oct-17 14:25 259 4 gusting 13 12.8
2019-Oct-17 14:20 276 4 gusting 13 12.8
2019-Oct-17 14:15 284 4 gusting 9 13.3
2019-Oct-17 14:10 311 5 gusting 9 13.3
2019-Oct-17 14:05 309 5 gusting 10 12.8
2019-Oct-17 14:00 294 6 gusting 10 12.8
2019-Oct-17 13:55 329 5 gusting 13 12.2
2019-Oct-17 13:50 256 5 gusting 13 12.2
2019-Oct-17 13:45 232 4 gusting 9 12.2
2019-Oct-17 13:40 261 5 gusting 9 12.2
2019-Oct-17 13:35 339 5 gusting 8 12.2
2019-Oct-17 13:30 270 4 gusting 8 12.2
2019-Oct-17 13:25 232 4 gusting 7 12.2
2019-Oct-17 13:20 173 5 gusting 8 12.2
2019-Oct-17 13:15 289 5 gusting 10 12.2
2019-Oct-17 13:10 277 5 gusting 10 12.2
2019-Oct-17 13:05 322 4 gusting 10 12.2
2019-Oct-17 13:00 233 5 gusting 8 12.2
2019-Oct-17 12:55 254 4 gusting 7 12.2
2019-Oct-17 12:50 272 4 gusting 9 12.2
2019-Oct-17 12:45 271 4 gusting 10 12.2
2019-Oct-17 12:40 274 4 gusting 10 12.2
2019-Oct-17 12:35 244 5 gusting 10 12.2
2019-Oct-17 12:30 301 5 gusting 10 11.7
2019-Oct-17 12:25 258 5 gusting 10 11.7
2019-Oct-17 12:20 288 4 gusting 10 11.7
2019-Oct-17 12:15 264 4 gusting 8 11.7
2019-Oct-17 12:10 335 5 gusting 12 11.7
2019-Oct-17 12:05 292 5 gusting 12 11.7
2019-Oct-17 12:00 253 5 gusting 9 11.7
2019-Oct-17 11:55 258 5 gusting 9 11.7
2019-Oct-17 11:50 248 5 gusting 11 11.7
2019-Oct-17 11:45 250 5 gusting 11 11.7
2019-Oct-17 11:40 276 4 gusting 10 11.7
2019-Oct-17 11:35 263 4 gusting 9 11.7
2019-Oct-17 11:30 274 4 gusting 9 11.7
2019-Oct-17 11:25 250 4 gusting 8 11.7
2019-Oct-17 11:20 252 4 gusting 8 11.7
2019-Oct-17 11:15 259 3 gusting 7 11.7
2019-Oct-17 11:10 313 3 gusting 7 11.1
2019-Oct-17 11:05 292 4 gusting 8 11.1
2019-Oct-17 11:00 267 4 gusting 8 11.1
2019-Oct-17 10:55 286 3 gusting 7 11.1
2019-Oct-17 10:50 275 3 gusting 6 11.1
2019-Oct-17 10:45 308 4 gusting 11 11.1
2019-Oct-17 10:40 261 4 gusting 11 11.1
2019-Oct-17 10:35 294 3 gusting 8 11.1
2019-Oct-17 10:30 246 4 gusting 8 11.1
2019-Oct-17 10:25 225 4 gusting 7 11.1
2019-Oct-17 10:20 231 4 gusting 8 11.1
2019-Oct-17 10:15 263 4 gusting 8 11.1
2019-Oct-17 10:10 240 3 gusting 7 11.1
2019-Oct-17 10:05 255 2 gusting 7 11.1
2019-Oct-17 10:00 270 2 gusting 6 11.1
2019-Oct-17 09:55 321 2 gusting 6 11.1
2019-Oct-17 09:50 313 3 gusting 7 11.1
2019-Oct-17 09:45 280 4 gusting 9 11.1
2019-Oct-17 09:40 259 4 gusting 9 11.1
2019-Oct-17 09:35 325 3 gusting 9 11.1
2019-Oct-17 09:30 257 3 gusting 9 11.1
2019-Oct-17 09:25 252 3 gusting 9 11.1
2019-Oct-17 09:20 302 4 gusting 6 11.1
2019-Oct-17 09:15 309 4 gusting 7 11.1
2019-Oct-17 09:10 273 4 gusting 7 11.1
2019-Oct-17 09:05 267 4 gusting 7 11.1
2019-Oct-17 09:00 253 4 gusting 8 11.1
2019-Oct-17 08:55 258 3 gusting 8 11.1
2019-Oct-17 08:50 250 3 gusting 7 11.1
2019-Oct-17 08:45 250 4 gusting 7 11.1
2019-Oct-17 08:40 265 4 gusting 8 11.1
2019-Oct-17 08:35 264 4 gusting 8 11.1
2019-Oct-17 08:30 297 4 gusting 7 11.7
2019-Oct-17 08:25 281 4 gusting 12 11.7
2019-Oct-17 08:20 281 4 gusting 12 11.7
2019-Oct-17 08:15 273 5 gusting 12 11.7
2019-Oct-17 08:10 327 5 gusting 12 11.7
2019-Oct-17 08:05 232 5 gusting 10 11.7
2019-Oct-17 08:00 276 4 gusting 10 11.7
2019-Oct-17 07:55 304 5 gusting 10 11.7
2019-Oct-17 07:50 250 5 gusting 10 11.7
2019-Oct-17 07:45 339 5 gusting 10 11.7
2019-Oct-17 07:40 284 5 gusting 12 11.7
2019-Oct-17 07:35 261 5 gusting 12 11.7
2019-Oct-17 07:30 302 5 gusting 8 11.7
2019-Oct-17 07:25 240 4 gusting 8 11.7
2019-Oct-17 07:20 265 3 gusting 8 11.7
2019-Oct-17 07:15 302 4 gusting 8 11.7
2019-Oct-17 07:05 284 4 gusting 8 11.7
2019-Oct-17 07:00 278 5 gusting 9 11.7
2019-Oct-17 06:55 325 5 gusting 10 11.7
2019-Oct-17 06:50 257 5 gusting 10 11.7
2019-Oct-17 06:45 134 5 gusting 13 11.7
2019-Oct-17 06:40 238 5 gusting 13 11.1
2019-Oct-17 06:35 267 5 gusting 13 11.1
2019-Oct-17 06:30 299 5 gusting 13 11.1
2019-Oct-17 06:25 263 5 gusting 13 11.1
2019-Oct-17 06:20 297 6 gusting 11 11.1
2019-Oct-17 06:15 277 6 gusting 12 11.1
2019-Oct-17 06:10 234 5 gusting 12 11.1
2019-Oct-17 06:05 325 6 gusting 10 11.1
2019-Oct-17 06:00 267 5 gusting 11 11.7
2019-Oct-17 05:55 257 5 gusting 11 11.7
2019-Oct-17 05:50 290 4 gusting 12 11.7
2019-Oct-17 05:45 226 4 gusting 12 11.7
2019-Oct-17 05:40 262 4 gusting 10 11.7
2019-Oct-17 05:35 311 3 gusting 10 11.7
2019-Oct-17 05:30 319 4 gusting 12 11.7
2019-Oct-17 05:25 281 4 gusting 12 11.7
2019-Oct-17 05:20 332 4 gusting 9 11.7
2019-Oct-17 05:15 294 4 gusting 9 11.7
2019-Oct-17 05:10 277 4 gusting 13 11.7
2019-Oct-17 05:05 339 5 gusting 19 11.7
2019-Oct-17 05:00 246 6 gusting 19 12.2
2019-Oct-17 04:55 338 5 gusting 12 12.2
2019-Oct-17 04:50 244 6 gusting 15 12.2
2019-Oct-17 04:45 329 5 gusting 15 12.2
2019-Oct-17 04:40 298 5 gusting 11 11.7
2019-Oct-17 04:35 340 5 gusting 11 11.7
2019-Oct-17 04:30 270 5 gusting 15 11.7
2019-Oct-17 04:25 288 5 gusting 15 12.2
2019-Oct-17 04:20 294 6 gusting 12 12.2
2019-Oct-17 04:15 300 6 gusting 12 12.2
2019-Oct-17 04:10 265 6 gusting 18 12.2
2019-Oct-17 04:05 321 6 gusting 18 12.2
2019-Oct-17 04:00 324 6 gusting 13 12.8
2019-Oct-17 03:55 316 6 gusting 12 12.8
2019-Oct-17 03:50 310 6 gusting 17 13.3
2019-Oct-17 03:45 253 6 gusting 17 13.3
2019-Oct-17 03:40 283 5 gusting 15 14.4
2019-Oct-17 03:35 306 4 gusting 15 15.0
2019-Oct-17 03:30 323 5 gusting 15 15.0
2019-Oct-17 03:25 211 5 gusting 15 15.6
2019-Oct-17 03:20 282 5 gusting 8 16.1
2019-Oct-17 03:15 337 5 gusting 9 16.1
2019-Oct-17 03:10 281 4 gusting 9 16.7
2019-Oct-17 03:05 255 2 gusting 7 16.7
2019-Oct-17 03:00 311 2 gusting 7 16.7
2019-Oct-17 02:55 308 1 gusting 4 17.2
2019-Oct-17 02:50 311 2 gusting 8 17.2
2019-Oct-17 02:45 261 2 gusting 8 17.2
2019-Oct-17 02:40 253 3 gusting 13 17.8
2019-Oct-17 02:35 186 4 gusting 13 17.8
2019-Oct-17 02:30 182 4 gusting 10 18.3
2019-Oct-17 02:25 178 5 gusting 15 18.3
2019-Oct-17 02:20 156 6 gusting 18 18.3
2019-Oct-17 02:15 125 6 gusting 18 17.8
2019-Oct-17 02:10 170 7 gusting 18 17.8
2019-Oct-17 02:05 155 7 gusting 18 17.8
2019-Oct-17 02:00 147 7 gusting 17 17.8
2019-Oct-17 01:55 119 7 gusting 20 17.8
2019-Oct-17 01:50 150 7 gusting 20 17.8
2019-Oct-17 01:45 153 6 gusting 13 17.8
2019-Oct-17 01:40 188 5 gusting 11 17.2
2019-Oct-17 01:34 138 6 gusting 13 17.2
2019-Oct-17 01:29 150 6 gusting 16 17.2
2019-Oct-17 01:24 119 7 gusting 21 17.2
2019-Oct-17 01:19 096 9 gusting 21 17.2
2019-Oct-17 01:14 104 10 gusting 21 17.2
2019-Oct-17 01:09 096 10 gusting 21 17.2
2019-Oct-17 01:04 097 12 gusting 21 17.2
2019-Oct-17 00:59 111 11 gusting 27 17.2
2019-Oct-17 00:54 082 11 gusting 27 17.2
2019-Oct-17 00:49 128 13 gusting 27 17.2
2019-Oct-17 00:44 116 12 gusting 27 16.7
2019-Oct-17 00:39 126 12 gusting 25 16.7
2019-Oct-17 00:34 121 13 gusting 25 16.7
2019-Oct-17 00:29 092 13 gusting 25 16.7
2019-Oct-17 00:24 072 13 gusting 25 16.7
2019-Oct-17 00:19 102 13 gusting 25 16.7
2019-Oct-17 00:14 138 13 gusting 27 16.7
2019-Oct-17 00:09 096 13 gusting 27 16.7
2019-Oct-17 00:04 116 13 gusting 22 16.7
2019-Oct-16 23:58 164 11 gusting 23 16.7
2019-Oct-16 23:53 139 11 gusting 24 16.7
2019-Oct-16 23:48 130 11 gusting 24 16.7
2019-Oct-16 23:43 133 10 gusting 19 16.7
2019-Oct-16 23:38 119 10 gusting 20 16.7
2019-Oct-16 23:33 076 10 gusting 22 16.7
2019-Oct-16 23:28 157 10 gusting 22 16.7
2019-Oct-16 23:23 150 9 gusting 19 16.7
2019-Oct-16 23:18 132 9 gusting 21 17.2
2019-Oct-16 23:13 168 11 gusting 26 17.2
2019-Oct-16 23:08 100 9 gusting 26 16.7
2019-Oct-16 23:03 107 9 gusting 25 16.7
2019-Oct-16 22:58 116 10 gusting 25 16.7
2019-Oct-16 22:53 128 8 gusting 19 16.7
2019-Oct-16 22:48 144 9 gusting 25 16.7
2019-Oct-16 22:43 141 10 gusting 25 16.7
2019-Oct-16 22:38 121 8 gusting 19 16.7
2019-Oct-16 22:33 027 8 gusting 18 16.7
2019-Oct-16 22:28 155 8 gusting 17 16.7
2019-Oct-16 22:23 107 9 gusting 20 16.7
2019-Oct-16 22:18 130 9 gusting 20 17.2
2019-Oct-16 22:13 170 8 gusting 19 17.2
2019-Oct-16 22:08 119 7 gusting 19 17.2
2019-Oct-16 22:03 146 8 gusting 18 17.2
2019-Oct-16 21:58 169 8 gusting 19 17.2
2019-Oct-16 21:53 145 7 gusting 19 17.2
2019-Oct-16 21:48 099 8 gusting 19 17.2
2019-Oct-16 21:43 045 9 gusting 19 17.2
2019-Oct-16 21:38 084 7 gusting 17 17.2
2019-Oct-16 21:33 096 6 gusting 17 17.2
2019-Oct-16 21:28 099 7 gusting 16 17.8
2019-Oct-16 21:23 134 8 gusting 17 17.8
2019-Oct-16 21:18 108 7 gusting 17 17.8
2019-Oct-16 21:13 113 7 gusting 15 17.8
2019-Oct-16 21:08 167 8 gusting 16 17.8
2019-Oct-16 21:03 088 8 gusting 16 18.3
2019-Oct-16 20:58 163 6 gusting 19 17.8
2019-Oct-16 20:53 096 7 gusting 19 18.3
2019-Oct-16 20:48 107 7 gusting 16 18.3
2019-Oct-16 20:43 125 8 gusting 18 17.8
2019-Oct-16 20:38 138 8 gusting 18 17.8
2019-Oct-16 20:33 102 7 gusting 16 17.8
2019-Oct-16 20:28 111 7 gusting 15 17.8
2019-Oct-16 20:23 128 7 gusting 15 17.8
2019-Oct-16 20:18 121 6 gusting 15 17.8
2019-Oct-16 20:13 108 6 gusting 13 17.8
2019-Oct-16 20:08 130 6 gusting 17 17.8
2019-Oct-16 20:03 076 7 gusting 17 17.8
2019-Oct-16 19:58 146 8 gusting 16 17.8
2019-Oct-16 19:53 123 8 gusting 16 17.8
2019-Oct-16 19:48 114 8 gusting 16 17.8
2019-Oct-16 19:43 088 7 gusting 16 17.2
2019-Oct-16 19:38 103 6 gusting 17 17.2
2019-Oct-16 19:33 111 7 gusting 17 17.2
2019-Oct-16 19:28 111 7 gusting 16 17.2
2019-Oct-16 19:23 084 7 gusting 16 17.2
2019-Oct-16 19:18 123 7 gusting 15 17.2
2019-Oct-16 19:13 132 6 gusting 15 17.2
2019-Oct-16 19:08 148 7 gusting 15 17.2
2019-Oct-16 19:03 126 7 gusting 17 17.2
2019-Oct-16 18:58 071 7 gusting 17 17.2
2019-Oct-16 18:53 101 7 gusting 17 17.8
2019-Oct-16 18:48 157 7 gusting 17 17.8
2019-Oct-16 18:43 122 7 gusting 17 18.3
2019-Oct-16 18:38 107 7 gusting 19 18.3
2019-Oct-16 18:33 156 8 gusting 19 18.3
2019-Oct-16 18:28 153 8 gusting 19 18.3
2019-Oct-16 18:23 101 8 gusting 19 18.3
2019-Oct-16 18:18 178 7 gusting 18 18.3
2019-Oct-16 18:13 125 7 gusting 16 18.3
2019-Oct-16 18:08 098 6 gusting 17 18.3
2019-Oct-16 18:03 149 6 gusting 17 18.3
2019-Oct-16 17:58 181 6 gusting 15 18.3
2019-Oct-16 17:53 101 6 gusting 15 18.3
2019-Oct-16 17:48 140 6 gusting 13 18.3
2019-Oct-16 17:43 093 7 gusting 15 18.3
2019-Oct-16 17:38 146 7 gusting 17 18.3
2019-Oct-16 17:33 173 7 gusting 17 18.3
2019-Oct-16 17:28 115 6 gusting 13 18.3
2019-Oct-16 17:23 070 6 gusting 13 18.3
2019-Oct-16 17:18 109 6 gusting 16 18.3
2019-Oct-16 17:13 111 6 gusting 16 18.3
2019-Oct-16 17:08 098 6 gusting 12 18.3
2019-Oct-16 17:03 109 7 gusting 16 17.8
2019-Oct-16 16:58 148 6 gusting 16 17.8
2019-Oct-16 16:53 092 6 gusting 15 17.8
2019-Oct-16 16:48 134 7 gusting 15 17.8
2019-Oct-16 16:43 121 6 gusting 15 17.8
2019-Oct-16 16:38 182 6 gusting 12 18.3
2019-Oct-16 16:33 159 6 gusting 15 17.8
2019-Oct-16 16:28 135 6 gusting 15 17.8
2019-Oct-16 16:23 114 6 gusting 15 17.8
2019-Oct-16 16:18 117 6 gusting 12 17.8
2019-Oct-16 16:13 099 6 gusting 13 17.8
2019-Oct-16 16:08 140 6 gusting 13 17.8
2019-Oct-16 16:03 115 6 gusting 13 17.8
2019-Oct-16 15:58 118 7 gusting 15 17.8
2019-Oct-16 15:53 155 7 gusting 15 18.3
2019-Oct-16 15:48 146 7 gusting 13 18.3
2019-Oct-16 15:43 145 7 gusting 13 18.3
2019-Oct-16 15:37 105 7 gusting 13 18.3
2019-Oct-16 15:32 130 6 gusting 12 18.3
2019-Oct-16 15:27 172 6 gusting 15 18.3
2019-Oct-16 15:22 113 6 gusting 15 17.8
2019-Oct-16 15:17 144 6 gusting 13 17.8
2019-Oct-16 15:12 142 6 gusting 13 17.8
2019-Oct-16 15:07 120 6 gusting 15 17.8
2019-Oct-16 15:02 159 6 gusting 15 17.8
2019-Oct-16 14:57 142 6 gusting 15 17.8
2019-Oct-16 14:52 171 6 gusting 15 17.8
2019-Oct-16 14:47 144 6 gusting 15 17.8
2019-Oct-16 14:42 123 6 gusting 15 17.8
2019-Oct-16 14:37 117 6 gusting 15 17.8
2019-Oct-16 14:32 149 6 gusting 15 17.8
2019-Oct-16 14:27 109 6 gusting 13 17.8
2019-Oct-16 14:22 064 6 gusting 13 17.8
2019-Oct-16 14:17 172 6 gusting 13 17.2
2019-Oct-16 14:12 126 6 gusting 13 17.2
2019-Oct-16 14:07 147 5 gusting 13 17.2
2019-Oct-16 14:02 106 6 gusting 13 17.2